Showing default

TECHEDSAT-11, 60208

Orbit data source: Space-Track

TECHEDSAT-11, 60208 is an American payload satellite in SSO that was launched on Thu, 04 Jul 2024 UTC via an FIREFLY ALPHA launch vehicle from the Air Force Western Test Range (AFWTR). Payload-class satellites include a variety of spacecraft equipped with specific instruments for various scientific and technological missions. These include communications satellites like Starlink; space stations such as the ISS; scientific satellites like the Hubble; Earth observation satellites from companies like Planet Labs, Umbra, and HawkEye 360; GPS; miniature CubeSats for education and research; and military/defense satellites.

Loading next visibility...
Identifier
60208, 2024-125F
Orbit
SSO
Country
Flag of USUS
Related business
Manufacturer
ARC
Mission
Operational spacecraft
Bus & Motor
CUBESAT 6UXL, Unknown motor
Mass
10 kg wet, ~10 kg dry
Launch date (UTC)
2024-07-04 (1 year ago)
Launch vehicle
FIREFLY ALPHA
Launch site
Air Force Western Test Range (AFWTR)
Object type
Payload
Rocket body
Debris
Shape & HBR
Unknown
Radar Cross Section
Small (<0.1 m²)

Expand to show TLE details & history
Last TLE update: 9 hours ago

TLE from 9 hours ago
0 TECHEDSAT-11
1 60208U 24125F   25258.59216407  .00017480  00000-0  51218-3 0  9996
2 60208  97.2702 108.1021 0021058 138.6129 221.6715 15.35045206 66944
Epoch: 2025-09-15T14:12Z
TLE epoch observation values (Epoch: 2025-09-15T14:12:42.975Z)
Latitude
-0.00001°
Longitude
-99.87157°
Altitude
474.674 km
Speed
7.623 km/s
True Right ascension
07h 12m 24s
True Declination
0° 00' 00"
Sunlit
Object was in daylight at epoch
Visualization orbit readout
Latitude
Unknown
Longitude
Unknown
Altitude
Unknown
Speed
Unknown
Apparent Right ascension
Unknown
Apparent Declination
Unknown
Sunlit
N/A
Visualization observer readout
Local Sidereal Time
15:48:23
Azimuth
Unknown
Elevation
Unknown
Doppler factor
Unknown
Orbital elements
Apogee altitude
472.121 km
Perigee altitude
443.331 km
Semi-major axis
6,835.863 km
Eccentricity
0.00211
Inclination
97.2702°
RAAN
108.1021°
Arg. of periapsis
138.6129°
True anomaly
221.51138°
Mean anomaly
221.6715°
Eccentric anomaly
221.59141°
Mean motion
3.84019 °/min
Orbital period
93.75 mins
BSTAR
0.00051218
Loading maneuver chart data...
Computing Atmospheric mass density...
Loading historical data...
Loading historical data...
Loading historical data...
Loading historical data...
Loading historical data...
Loading historical data...
Loading historical data...

Documentation

Showing up to 5 results
|